Location: Columbia
(38.9520°N, 92.3340°W)
Time: 14:04:52
(UTC-05:00)

FENGYUN 3A - Visible Passes

Search period start: 25 September 2016 00:00
Search period end: 05 October 2016 00:00
Orbit: 820 x 833 km, 98.4° (Epoch: 25 September)

Date Brightness Start Highest point End Pass type
(mag) Time Alt. Az. Time Alt. Az. Time Alt. Az.
25 Sep 3.5 20:25:39 10° SSE 20:30:58 71° ENE 20:36:21 10° N visible
25 Sep 6.3 22:09:12 10° WSW 22:11:43 13° W 22:14:14 10° WNW visible
26 Sep 3.9 20:07:03 10° SE 20:12:10 48° ENE 20:17:20 10° N visible
26 Sep 5.9 21:48:43 10° SW 21:52:38 20° W 21:56:34 10° NW visible
27 Sep 4.4 19:48:42 10° SE 19:53:25 32° ENE 19:58:10 10° N visible
27 Sep 5.3 21:29:17 12° SSW 21:33:36 30° W 21:38:19 10° NW visible
28 Sep 4.8 19:30:39 10° ESE 19:34:43 23° ENE 19:38:49 10° NNE visible
28 Sep 4.6 21:10:21 14° SSW 21:14:38 45° W 21:19:48 10° NNW visible
29 Sep 3.9 20:51:25 16° S 20:55:42 68° WSW 21:01:06 10° NNW visible
30 Sep 3.5 20:32:29 16° SSE 20:36:50 81° ENE 20:42:15 10° N visible
30 Sep 6.4 22:16:03 10° WSW 22:17:39 11° W 22:19:18 10° WNW visible
01 Oct 3.7 20:13:33 14° SE 20:18:00 55° ENE 20:23:16 10° N visible
01 Oct 6.1 21:55:04 10° SW 21:58:34 18° W 22:02:08 10° NW visible
02 Oct 4.2 19:54:37 11° SE 19:59:14 37° ENE 20:04:10 10° N visible
02 Oct 5.5 21:36:08 15° SW 21:39:31 26° W 21:44:02 10° NW visible
03 Oct 4.6 19:36:11 10° ESE 19:40:31 26° ENE 19:44:54 10° NNE visible
03 Oct 4.8 21:17:12 19° SSW 21:20:31 39° W 21:25:35 10° NNW visible
04 Oct 5.1 19:18:22 10° ESE 19:21:52 18° ENE 19:25:22 10° NNE visible
04 Oct 4.1 20:58:18 23° S 21:01:35 59° W 21:06:55 10° NNW visible
